When you browse on this site, cookies collect data to enhance your experience and personalize the content and advertising you see.
Visit our Privacy Policy to learn more. By continuing to use the site, you agree to this use of cookies and data.
  • In Spain
  • List of Countries
  • For 7 days
  • Water Temperature
  • Satellite Maps
  • Weather Map
  • Weather Widgets
  • user-avatar
    Login

    Hourly Weather Cervinia

    Today, 21 June, Friday

    Time Temperature Precipitation Wind Pressure Humidity
    00:00 +13°C° 0 mm 0 mps 671 mmHg 82%
    01:00 +12°C° 0 mm 0 mps 671 mmHg 82%
    02:00 +12°C° 0 mm 0 mps 671 mmHg 82%
    03:00 +12°C° 0 mm 0 mps 671 mmHg 82%
    04:00 +13°C° 0 mm 0 mps 671 mmHg 79%
    05:00 +15°C° 0 mm 0 mps 672 mmHg 77%
    06:00 +16°C° 0 mm 0 mps 672 mmHg 74%
    07:00 +17°C° 0.1 mm 0 mps 673 mmHg 70%
    08:00 +21°C° 0.1 mm 1 mps 673 mmHg 65%
    09:00 +22°C° 0.1 mm 1 mps 674 mmHg 61%
    10:00 +22°C° 0.9 mm 1 mps 673 mmHg 64%
    11:00 +22°C° 0.9 mm 1 mps 673 mmHg 67%
    12:00 +21°C° 0.9 mm 2 mps 673 mmHg 70%
    13:00 +21°C° 1.5 mm 2 mps 673 mmHg 73%
    14:00 +21°C° 1.5 mm 2 mps 672 mmHg 75%
    15:00 +21°C° 1.5 mm 1 mps 672 mmHg 77%
    16:00 +21°C° 1.4 mm 1 mps 672 mmHg 81%
    17:00 +20°C° 1.4 mm 1 mps 672 mmHg 84%
    18:00 +19°C° 1.4 mm 1 mps 672 mmHg 88%
    19:00 +18°C° 0.5 mm 1 mps 672 mmHg 89%
    20:00 +16°C° 0.5 mm 0 mps 672 mmHg 90%
    21:00 +15°C° 0.5 mm 0 mps 672 mmHg 91%
    22:00 +15°C° 0.6 mm 0 mps 672 mmHg 91%
    23:00 +15°C° 0.6 mm 0 mps 672 mmHg 92%

    Tomorrow, 22 June, Saturday

    Time Temperature Precipitation Wind Pressure Humidity
    00:00 +15°C° 0.6 mm 1 mps 672 mmHg 93%
    01:00 +15°C° 1 mm 1 mps 671 mmHg 94%
    02:00 +15°C° 1 mm 1 mps 671 mmHg 95%
    03:00 +15°C° 1 mm 1 mps 671 mmHg 96%
    04:00 +15°C° 0.6 mm 0 mps 671 mmHg 93%
    05:00 +15°C° 0.6 mm 0 mps 672 mmHg 91%
    06:00 +15°C° 0.6 mm 0 mps 672 mmHg 89%
    07:00 +17°C° 0.4 mm 0 mps 672 mmHg 84%
    08:00 +20°C° 0.4 mm 1 mps 672 mmHg 80%
    09:00 +21°C° 0.4 mm 1 mps 673 mmHg 75%
    10:00 +21°C° 1.1 mm 1 mps 672 mmHg 75%
    11:00 +22°C° 1.1 mm 1 mps 672 mmHg 74%
    12:00 +22°C° 1.1 mm 1 mps 672 mmHg 73%
    13:00 +21°C° 1.6 mm 1 mps 672 mmHg 74%
    14:00 +21°C° 1.6 mm 1 mps 672 mmHg 75%
    15:00 +21°C° 1.6 mm 1 mps 672 mmHg 76%
    16:00 +20°C° 1.1 mm 1 mps 672 mmHg 77%
    17:00 +20°C° 1.1 mm 1 mps 672 mmHg 78%
    18:00 +19°C° 1.1 mm 1 mps 672 mmHg 80%
    19:00 +18°C° 0.1 mm 1 mps 672 mmHg 81%
    20:00 +15°C° 0.1 mm 1 mps 672 mmHg 82%
    21:00 +14°C° 0.1 mm 1 mps 671 mmHg 84%
    22:00 +14°C° 0 mm 1 mps 671 mmHg 83%
    23:00 +13°C° 0 mm 1 mps 671 mmHg 82%

    Day after tomorrow, 23 June, Sunday

    Time Temperature Precipitation Wind Pressure Humidity
    00:00 +13°C° 0 mm 2 mps 671 mmHg 81%
    01:00 +13°C° 0 mm 1 mps 671 mmHg 79%
    02:00 +13°C° 0 mm 1 mps 671 mmHg 77%
    03:00 +13°C° 0 mm 1 mps 671 mmHg 74%
    04:00 +14°C° 0 mm 1 mps 671 mmHg 70%
    05:00 +16°C° 0 mm 1 mps 672 mmHg 65%
    06:00 +19°C° 0 mm 1 mps 672 mmHg 61%
    07:00 +21°C° 0 mm 1 mps 673 mmHg 55%
    08:00 +23°C° 0 mm 1 mps 673 mmHg 50%
    09:00 +25°C° 0 mm 1 mps 673 mmHg 45%
    10:00 +26°C° 0 mm 1 mps 674 mmHg 44%
    11:00 +27°C° 0 mm 1 mps 674 mmHg 43%
    12:00 +28°C° 0 mm 2 mps 674 mmHg 43%
    13:00 +28°C° 0 mm 2 mps 674 mmHg 45%
    14:00 +28°C° 0 mm 2 mps 674 mmHg 47%
    15:00 +27°C° 0 mm 2 mps 674 mmHg 50%
    16:00 +26°C° 0 mm 2 mps 674 mmHg 58%
    17:00 +25°C° 0 mm 2 mps 674 mmHg 65%
    18:00 +24°C° 0 mm 1 mps 674 mmHg 73%
    19:00 +22°C° 0 mm 1 mps 674 mmHg 77%
    20:00 +20°C° 0 mm 1 mps 674 mmHg 81%
    21:00 +17°C° 0 mm 0 mps 674 mmHg 86%
    22:00 +16°C° 0 mm 0 mps 674 mmHg 84%
    23:00 +16°C° 0 mm 0 mps 674 mmHg 82%

    24 June, Monday

    Time Temperature Precipitation Wind Pressure Humidity
    00:00 +16°C° 0 mm 0 mps 674 mmHg 80%
    01:00 +15°C° 0 mm 0 mps 674 mmHg 79%
    02:00 +15°C° 0 mm 0 mps 674 mmHg 78%
    03:00 +14°C° 0 mm 0 mps 674 mmHg 78%
    04:00 +16°C° 0 mm 0 mps 675 mmHg 71%
    05:00 +18°C° 0 mm 0 mps 675 mmHg 64%
    06:00 +21°C° 0 mm 0 mps 676 mmHg 57%
    07:00 +22°C° 0 mm 0 mps 676 mmHg 53%
    08:00 +26°C° 0 mm 1 mps 677 mmHg 49%
    09:00 +28°C° 0 mm 1 mps 677 mmHg 44%
    10:00 +29°C° 0 mm 1 mps 677 mmHg 43%
    11:00 +30°C° 0 mm 1 mps 678 mmHg 41%
    12:00 +31°C° 0 mm 2 mps 678 mmHg 40%
    13:00 +30°C° 0 mm 2 mps 678 mmHg 43%
    14:00 +30°C° 0 mm 2 mps 677 mmHg 46%
    15:00 +30°C° 0 mm 2 mps 677 mmHg 49%
    16:00 +29°C° 0.1 mm 2 mps 677 mmHg 57%
    17:00 +28°C° 0.1 mm 1 mps 677 mmHg 65%
    18:00 +26°C° 0.1 mm 1 mps 677 mmHg 73%
    19:00 +24°C° 0 mm 1 mps 677 mmHg 78%
    20:00 +22°C° 0 mm 1 mps 677 mmHg 82%
    21:00 +18°C° 0 mm 0 mps 677 mmHg 86%
    22:00 +18°C° 0 mm 0 mps 677 mmHg 85%
    23:00 +17°C° 0 mm 0 mps 677 mmHg 83%

    25 June, Tuesday

    Time Temperature Precipitation Wind Pressure Humidity
    00:00 +17°C° 0 mm 0 mps 677 mmHg 82%
    01:00 +17°C° 0 mm 0 mps 677 mmHg 81%
    02:00 +17°C° 0 mm 0 mps 677 mmHg 79%
    03:00 +16°C° 0 mm 0 mps 676 mmHg 78%
    04:00 +19°C° 0 mm 0 mps 677 mmHg 72%
    05:00 +21°C° 0 mm 0 mps 678 mmHg 66%
    06:00 +23°C° 0 mm 0 mps 678 mmHg 59%
    07:00 +27°C° 0 mm 1 mps 679 mmHg 54%
    08:00 +28°C° 0 mm 1 mps 679 mmHg 48%
    09:00 +30°C° 0 mm 1 mps 680 mmHg 42%
    10:00 +31°C° 0.1 mm 2 mps 680 mmHg 42%
    11:00 +32°C° 0.1 mm 2 mps 680 mmHg 41%
    12:00 +32°C° 0.1 mm 2 mps 680 mmHg 40%
    13:00 +32°C° 0.1 mm 2 mps 680 mmHg 43%
    14:00 +32°C° 0.1 mm 2 mps 679 mmHg 45%
    15:00 +31°C° 0.1 mm 2 mps 679 mmHg 47%
    16:00 +30°C° 0.1 mm 2 mps 679 mmHg 54%
    17:00 +29°C° 0.1 mm 2 mps 679 mmHg 62%
    18:00 +28°C° 0.1 mm 1 mps 679 mmHg 69%
    19:00 +26°C° 0 mm 1 mps 679 mmHg 70%
    20:00 +24°C° 0 mm 1 mps 678 mmHg 71%
    21:00 +20°C° 0 mm 0 mps 678 mmHg 72%
    22:00 +20°C° 0 mm 0 mps 678 mmHg 71%
    23:00 +19°C° 0 mm 0 mps 678 mmHg 69%

    26 June, Wednesday

    Time Temperature Precipitation Wind Pressure Humidity
    00:00 +19°C° 0 mm 0 mps 678 mmHg 68%
    01:00 +18°C° 0 mm 0 mps 678 mmHg 66%
    02:00 +20°C° 0 mm 1 mps 677 mmHg 64%
    03:00 +20°C° 0 mm 1 mps 677 mmHg 62%
    04:00 +22°C° 0 mm 1 mps 678 mmHg 58%
    05:00 +24°C° 0 mm 1 mps 678 mmHg 54%
    06:00 +26°C° 0 mm 1 mps 679 mmHg 50%
    07:00 +28°C° 0 mm 1 mps 679 mmHg 45%
    08:00 +29°C° 0 mm 1 mps 679 mmHg 39%
    09:00 +31°C° 0 mm 1 mps 679 mmHg 34%
    10:00 +32°C° 0 mm 2 mps 679 mmHg 34%
    11:00 +32°C° 0 mm 2 mps 679 mmHg 33%
    12:00 +34°C° 0 mm 3 mps 679 mmHg 33%
    13:00 +33°C° 0.1 mm 3 mps 679 mmHg 36%
    14:00 +33°C° 0.1 mm 3 mps 678 mmHg 38%
    15:00 +33°C° 0.1 mm 3 mps 678 mmHg 40%
    16:00 +31°C° 0.2 mm 2 mps 678 mmHg 49%
    17:00 +29°C° 0.2 mm 2 mps 678 mmHg 57%
    18:00 +28°C° 0.2 mm 1 mps 677 mmHg 66%
    19:00 +26°C° 0 mm 1 mps 677 mmHg 69%
    20:00 +24°C° 0 mm 1 mps 677 mmHg 72%
    21:00 +22°C° 0 mm 1 mps 677 mmHg 74%
    22:00 +19°C° 0 mm 0 mps 676 mmHg 72%
    23:00 +18°C° 0 mm 0 mps 676 mmHg 71%
    Show more